Starlink 32917

operational
NORAD ID: 62921 Int'l Des: 2025-027 Owner: SPXS Country: US Constellation: starlink
LEOCIRCULAR

About Starlink 32917

Description loading...

Live Position

Loading 3D Globe...

Upcoming Passes

Altitude History

Altitude vs Time

uPlot chart will show altitude changes over time

Two-Line Element Set

1 62921U 25027Q 26034.17846142 .00025255 00000-0 92359-3 0 9994
2 62921 43.0044 323.8256 0002187 257.4040 102.6567 15.27599027 56269
Epoch: Feb 3, 2026 • Age: 22 hours

Current Status

Altitude 482.6 km
Velocity 7.63 km/s
Sub-Earth Point 14.88°N, 165.6°E
Launch Date Feb 8, 2025
Age 0.9 years
Type internet

Technical Details

Classification Payload
Mass 730.00 kg
Dry Mass 700.00 kg
Total Mass 730.00 kg
Length 0.30 m
Diameter 4.10 m
Span 29.00 m
Shape Box + pan
Manufacturer SPXS
Bus Type Starlink V2M
Phase Status In Orbit
Owner/State SPXS/US

Large Constellations

Loading constellations...